Regional Weather Roundup
Issued by NWS

Home | Current Version | Previous Version | Graphics & Text | Print | Product List | Glossary On
Versions: 1 2 3 4 5 6 7 8 9 10 11 12 13 14 15 16 17 18 19 20 21 22 23 24 25 26 27
000
ASUS45 KBOI 160910
RWRID

IDAHO REGIONAL WEATHER ROUNDUP
NATIONAL WEATHER SERVICE BOISE ID
300 AM MDT WED AUG 16 2017

NOTE: "FAIR" INDICATES FEW OR NO CLOUDS BELOW 12000 FEET
WITH NO SIGNIFICANT WEATHER AND/OR OBSTRUCTIONS TO VISIBILITY

IDZ012-014-161000-
SOUTHWEST IDAHO


CITY           SKY/WX    TMP DP  RH WIND       PRES   REMARKS
BOISE          CLEAR     63  37  38 S8        29.92R
CALDWELL       CLEAR     64  43  46 W5        29.91R
MOUNTAIN HOME  CLEAR     62  39  42 N3        29.92R
$$

IDZ016-017-161000-
SOUTHCENTRAL IDAHO


CITY           SKY/WX    TMP DP  RH WIND       PRES   REMARKS
BURLEY         CLEAR     50  45  83 CALM      29.98S
JEROME         CLEAR     58  39  49 E7        29.98S
TWIN FALLS     CLEAR     61  33  35 S13       29.98S
$$

IDZ019>023-161000-
SOUTHEAST IDAHO


CITY           SKY/WX    TMP DP  RH WIND       PRES   REMARKS
IDAHO FALLS    CLEAR     50  46  86 N7        30.03S
POCATELLO      CLEAR     45  40  82 NW7       30.02R
REXBURG        CLEAR     49  43  80 NE5       30.05R
$$

IDZ006-010-011-018-031-032-161000-
CENTRAL IDAHO MOUNTAINS


CITY           SKY/WX    TMP DP  RH WIND       PRES   REMARKS
MCCALL         CLEAR     50  37  61 NE5       30.04S
HAILEY         CLEAR     52  43  71 NW13      30.08S
STANLEY          N/A     39  29  67 CALM      30.15S
SALMON         CLEAR     52  37  56 CALM      30.02R
CHALLIS        CLEAR     51  39  63 CALM      30.06R
$$

IDZ002-004-006-007-026-161000-
NORTHERN IDAHO


CITY           SKY/WX    TMP DP  RH WIND       PRES   REMARKS
LEWISTON       CLEAR     64  37  36 CALM      29.93R
LOWELL           N/A     56  46  69 CALM      29.98R
COEUR D`ALENE  CLEAR     60  44  55 SE5       29.96R
MULLAN PASS    CLEAR     52  28  39 NW3       30.10R
$$




USA.gov is the U.S. government's official web portal to all federal, state and local government web resources and services.